Data for 01/20/2017

Time Sea-Level Adjusted Pressure Absolute Pressure Temperature Relative Humidity Dew Point   
(mb) (inHg) (mb) (inHg) (C) (F) (%) (C) (F)
00:05 1004 29.65 833 24.6 0.1 32.2 76 -3.6 25.5
00:10 1004 29.65 833 24.6 0 32 77 -3.6 25.5
00:15 1004 29.65 833 24.6 0 32.1 75 -3.9 25
00:20 1004 29.65 833 24.6 0.2 32.3 74 -4 24.9
00:25 1004 29.65 833 24.6 0.4 32.7 73 -3.9 25
00:30 1004 29.65 833 24.6 0.6 33.1 72 -3.8 25.2
00:35 1004 29.65 833 24.6 0.8 33.4 72 -3.8 25.2
00:40 1004 29.65 833 24.6 0.8 33.4 72 -3.7 25.4
00:45 1004 29.65 833 24.6 0.7 33.3 72 -3.8 25.1
00:50 1004 29.65 833 24.6 0.6 33.1 73 -3.7 25.4
00:55 1004 29.65 833 24.6 0.5 32.9 73 -3.8 25.2
01:00 1004 29.65 833 24.6 0.6 33 73 -3.8 25.2
01:05 1004 29.65 833 24.6 0.6 33 73 -3.7 25.4
01:10 1004 29.65 833 24.6 0.3 32.6 74 -3.8 25.2
01:15 1004 29.65 833 24.6 0.2 32.3 74 -3.8 25.1
01:20 1004 29.65 833 24.6 0.1 32.1 76 -3.8 25.2
01:25 1004 29.65 833 24.6 -0.1 31.9 76 -3.8 25.1
01:30 1004 29.65 833 24.6 -0.2 31.6 76 -3.9 25
01:35 1004 29.65 833 24.6 -0.3 31.4 76 -4 24.8
01:40 1004 29.65 833 24.6 -0.5 31.2 76 -4.1 24.6
01:45 1004 29.65 833 24.6 -0.7 30.7 77 -4.3 24.2
01:50 1003 29.62 833 24.6 -0.8 30.5 77 -4.4 24.1
01:55 1003 29.62 833 24.6 -1 30.3 78 -4.4 24.1
02:00 1003 29.62 833 24.6 -0.9 30.4 77 -4.4 24.1
02:05 1003 29.62 833 24.6 -0.8 30.6 78 -4.2 24.4
02:10 1003 29.62 832 24.57 -0.7 30.8 77 -4.1 24.5
02:15 1003 29.62 832 24.57 -0.6 30.9 77 -4.2 24.4
02:20 1003 29.62 832 24.57 -0.5 31.1 76 -4.2 24.5
02:25 1003 29.62 833 24.6 -0.5 31.1 76 -4.2 24.5
02:30 1003 29.62 833 24.6 -0.7 30.8 77 -4.2 24.5
02:35 1003 29.62 833 24.6 -0.6 30.9 78 -4.1 24.7
02:40 1003 29.62 833 24.6 -0.6 30.9 77 -4.1 24.6
02:45 1003 29.62 833 24.6 -0.6 30.9 77 -4.2 24.5
02:50 1003 29.62 832 24.57 -0.8 30.6 77 -4.3 24.2
02:55 1003 29.62 833 24.6 -1 30.1 77 -4.5 23.9
03:00 1003 29.62 833 24.6 -1 30.2 77 -4.6 23.7
03:05 1003 29.62 833 24.6 -1 30.2 77 -4.5 23.9
03:10 1003 29.62 833 24.6 -0.9 30.3 77 -4.4 24
03:15 1003 29.62 833 24.6 -0.7 30.8 77 -4.3 24.3
03:20 1003 29.62 833 24.6 -0.6 30.9 76 -4.3 24.3
03:25 1004 29.65 833 24.6 -0.6 30.9 76 -4.3 24.2
03:30 1004 29.65 833 24.6 -0.7 30.8 76 -4.4 24.1
03:35 1004 29.65 833 24.6 -0.6 30.9 76 -4.3 24.2
03:40 1004 29.65 833 24.6 -0.6 30.9 76 -4.3 24.2
03:45 1004 29.65 833 24.6 -0.7 30.8 77 -4.3 24.3
03:50 1004 29.65 833 24.6 -0.6 30.9 77 -4.2 24.4
03:55 1003 29.62 833 24.6 -0.6 30.8 77 -4.2 24.4
04:00 1003 29.62 833 24.6 -0.8 30.6 78 -4.2 24.5
04:05 1003 29.62 833 24.6 -0.7 30.7 77 -4.2 24.4
04:10 1003 29.62 833 24.6 -0.7 30.8 76 -4.3 24.2
04:15 1003 29.62 833 24.6 -0.8 30.6 76 -4.4 24.1
04:20 1003 29.62 833 24.6 -0.7 30.7 77 -4.2 24.4
04:25 1003 29.62 833 24.6 -0.5 31 76 -4.3 24.2
04:30 1003 29.62 833 24.6 -0.6 30.9 76 -4.3 24.3
04:35 1003 29.62 832 24.57 -0.6 31 76 -4.2 24.4
04:40 1003 29.62 832 24.57 -0.6 30.9 77 -4.2 24.4
04:45 1003 29.62 833 24.6 -0.6 31 77 -4.1 24.6
04:50 1003 29.62 832 24.57 -0.8 30.5 77 -4.3 24.2
04:55 1003 29.62 832 24.57 -1.1 29.9 78 -4.4 24
05:00 1003 29.62 832 24.57 -1.4 29.4 79 -4.6 23.7
05:05 1003 29.62 832 24.57 -1.7 29 80 -4.7 23.5
05:10 1003 29.62 832 24.57 -1.9 28.5 81 -4.8 23.4
05:15 1003 29.62 832 24.57 -1.9 28.5 81 -4.7 23.5
05:20 1003 29.62 832 24.57 -1.8 28.8 81 -4.5 23.9
05:25 1003 29.62 832 24.57 -1.6 29.1 81 -4.4 24.1
05:30 1003 29.62 832 24.57 -1.4 29.5 80 -4.4 24.1
05:35 1003 29.62 832 24.57 -1.5 29.4 80 -4.5 23.9
05:40 1003 29.62 832 24.57 -1.8 28.8 81 -4.6 23.8
05:45 1003 29.62 832 24.57 -2 28.3 83 -4.6 23.8
05:50 1003 29.62 832 24.57 -1.9 28.5 82 -4.6 23.8
05:55 1003 29.62 832 24.57 -1.8 28.8 82 -4.4 24.1
06:00 1003 29.62 832 24.57 -1.7 28.9 83 -4.3 24.2
06:05 1003 29.62 832 24.57 -1.7 28.9 82 -4.3 24.2
06:10 1003 29.62 832 24.57 -1.7 29 81 -4.5 23.9
06:15 1003 29.62 832 24.57 -1.8 28.7 83 -4.3 24.3
06:20 1003 29.62 832 24.57 -1.8 28.8 83 -4.3 24.3
06:25 1003 29.62 832 24.57 -1.9 28.5 83 -4.5 23.9
06:30 1003 29.62 832 24.57 -2 28.3 83 -4.6 23.8
06:35 1003 29.62 832 24.57 -2 28.4 83 -4.5 24
06:40 1003 29.62 832 24.57 -1.9 28.6 83 -4.3 24.2
06:45 1003 29.62 832 24.57 -1.9 28.7 84 -4.1 24.5
06:50 1003 29.62 832 24.57 -1.5 29.3 83 -4 24.7
06:55 1003 29.62 832 24.57 -1.4 29.5 81 -4.2 24.4
07:00 1003 29.62 832 24.57 -1.7 28.9 82 -4.4 24.1
07:05 1003 29.62 832 24.57 -1.6 29.1 82 -4.4 24.1
07:10 1003 29.62 832 24.57 -1.4 29.4 82 -4.2 24.5
07:15 1003 29.62 832 24.57 -1.3 29.6 81 -4.2 24.4
07:20 1003 29.62 832 24.57 -1.4 29.5 82 -4.1 24.6
07:25 1003 29.62 832 24.57 -1.4 29.4 80 -4.4 24
07:30 1003 29.62 832 24.57 -1.8 28.8 81 -4.6 23.8
07:35 1003 29.62 832 24.57 -2 28.5 82 -4.7 23.6
07:40 1003 29.62 832 24.57 -2 28.4 83 -4.6 23.8
07:45 1003 29.62 832 24.57 -1.9 28.5 83 -4.5 23.9
07:50 1003 29.62 832 24.57 -1.9 28.6 82 -4.5 23.8
07:55 1003 29.62 832 24.57 -2 28.4 83 -4.5 23.9
08:00 1003 29.62 832 24.57 -2.1 28.3 83 -4.5 23.9
08:05 1003 29.62 832 24.57 -2.2 28.1 83 -4.7 23.5
08:10 1003 29.62 832 24.57 -2.7 27.2 85 -4.8 23.3
08:15 1003 29.62 832 24.57 -2.9 26.8 86 -4.9 23.2
08:20 1003 29.62 832 24.57 -3 26.6 86 -5 23
08:25 1003 29.62 832 24.57 -3.2 26.3 85 -5.3 22.5
08:30 1003 29.62 832 24.57 -3.2 26.2 86 -5.2 22.6
08:35 1003 29.62 832 24.57 -3.1 26.4 86 -5.2 22.6
08:40 1003 29.62 832 24.57 -3.2 26.2 86 -5.2 22.7
08:45 1003 29.62 832 24.57 -3.2 26.2 87 -5 23
08:50 1003 29.62 832 24.57 -2.8 27 87 -4.7 23.6
08:55 1003 29.62 832 24.57 -2.6 27.4 85 -4.8 23.3
09:00 1003 29.62 832 24.57 -2.8 26.9 83 -5.3 22.5
09:05 1002 29.59 832 24.57 -3.2 26.2 85 -5.3 22.4
09:10 1002 29.59 832 24.57 -3.4 25.9 85 -5.5 22
09:15 1002 29.59 832 24.57 -3.9 25 86 -5.9 21.4
09:20 1002 29.59 832 24.57 -4.2 24.4 87 -6.1 20.9
09:25 1002 29.59 832 24.57 -4.5 23.9 85 -6.6 20.2
09:30 1002 29.59 832 24.57 -4.4 24.1 88 -6.1 21
09:35 1002 29.59 832 24.57 -4.1 24.6 88 -5.9 21.5
09:40 1002 29.59 832 24.57 -3.8 25.2 87 -5.7 21.8
09:45 1002 29.59 832 24.57 -3.5 25.8 85 -5.6 21.9
09:50 1002 29.59 832 24.57 -3.3 26 82 -5.9 21.3
09:55 1002 29.59 832 24.57 -3.3 26.1 79 -6.4 20.5
10:00 1002 29.59 832 24.57 -3.4 25.9 80 -6.4 20.5
10:05 1002 29.59 832 24.57 -3.1 26.4 80 -6.1 21.1
10:10 1002 29.59 831 24.54 -2.7 27.2 79 -5.9 21.4
10:15 1002 29.59 831 24.54 -2.5 27.6 78 -5.8 21.6
10:20 1002 29.59 831 24.54 -2.3 27.9 77 -5.8 21.5
10:25 1002 29.59 831 24.54 -1.8 28.7 75 -5.8 21.6
10:30 1002 29.59 831 24.54 -1.4 29.5 73 -5.6 21.9
10:35 1002 29.59 831 24.54 -1.2 29.9 73 -5.4 22.2
10:40 1002 29.59 831 24.54 -1.6 29.2 74 -5.6 22
10:45 1002 29.59 831 24.54 -1.5 29.4 74 -5.5 22
10:50 1002 29.59 831 24.54 -1.6 29.1 74 -5.7 21.8
10:55 1002 29.59 831 24.54 -1.5 29.4 73 -5.8 21.6
11:00 1002 29.59 831 24.54 -1 30.2 71 -5.7 21.8
11:05 1002 29.59 831 24.54 -0.4 31.3 68 -5.6 22
11:10 1002 29.59 831 24.54 -0.2 31.6 66 -5.9 21.4
11:15 1002 29.59 831 24.54 -0 31.9 65 -5.8 21.5
11:20 1002 29.59 831 24.54 0.2 32.3 64 -5.9 21.3
11:25 1002 29.59 831 24.54 0.3 32.5 64 -5.8 21.5
11:30 1002 29.59 831 24.54 0.7 33.2 62 -5.9 21.5
11:35 1002 29.59 831 24.54 1.3 34.4 60 -5.5 22
11:40 1002 29.59 831 24.54 1.6 34.9 61 -5.1 22.7
11:45 1002 29.59 831 24.54 2.2 36 58 -5.2 22.6
11:50 1002 29.59 831 24.54 2.8 37.1 57 -4.9 23.1
11:55 1002 29.59 831 24.54 2.9 37.1 57 -4.8 23.4
12:00 1002 29.59 831 24.54 2.8 37.1 56 -5.1 22.8
12:05 1001 29.56 831 24.54 3.3 37.9 55 -5 23
12:10 1001 29.56 831 24.54 3.4 38.1 54 -5 23
12:15 1001 29.56 831 24.54 3.4 38.1 55 -4.9 23.3
12:20 1001 29.56 831 24.54 3.6 38.5 53 -5 23
12:25 1001 29.56 830 24.51 3.8 38.9 52 -5.1 22.9
12:30 1001 29.56 830 24.51 3.9 39.1 52 -5.1 22.8
12:35 1001 29.56 830 24.51 4 39.2 52 -4.9 23.1
12:40 1001 29.56 830 24.51 4 39.3 52 -4.8 23.3
12:45 1001 29.56 830 24.51 4 39.2 52 -5 23
12:50 1001 29.56 830 24.51 4.5 40 50 -5.1 22.7
12:55 1001 29.56 830 24.51 4.4 39.9 51 -4.7 23.5
13:00 1001 29.56 830 24.51 4.1 39.4 55 -4.1 24.6
13:05 1000 29.53 830 24.51 2.4 36.2 60 -4.5 23.8
13:10 1000 29.53 830 24.51 2.8 37 55 -5.4 22.4
13:15 1001 29.56 830 24.51 3.4 38.1 54 -5 23
13:20 1000 29.53 830 24.51 2.5 36.5 58 -5 23
13:25 1000 29.53 830 24.51 2.9 37.3 55 -5.2 22.6
13:30 1000 29.53 830 24.51 3.2 37.8 56 -4.7 23.5
13:35 1000 29.53 829 24.48 3.2 37.8 56 -4.8 23.4
13:40 1000 29.53 829 24.48 3.3 38 54 -5.1 22.7
13:45 1000 29.53 829 24.48 3.6 38.5 52 -5.2 22.6
13:50 1000 29.53 829 24.48 3.8 38.9 53 -4.9 23.2
13:55 1000 29.53 829 24.48 3.3 37.9 57 -4.4 24
14:00 1000 29.53 829 24.48 3.1 37.5 56 -4.9 23.2
14:05 1000 29.53 829 24.48 2.2 36 61 -4.4 24
14:10 1000 29.53 829 24.48 1.8 35.2 64 -4.4 24.1
14:15 1000 29.53 829 24.48 1.3 34.4 63 -5.1 22.9
14:20 1000 29.53 829 24.48 1.4 34.5 65 -4.4 24.1
14:25 1000 29.53 829 24.48 2 35.7 63 -4.3 24.2
14:30 1000 29.53 829 24.48 2.4 36.3 57 -5.2 22.6
14:35 1000 29.53 829 24.48 2.9 37.2 60 -4.1 24.6
14:40 1000 29.53 829 24.48 2.7 36.8 57 -5.1 22.8
14:45 1000 29.53 829 24.48 2.6 36.7 59 -4.6 23.7
14:50 1000 29.53 829 24.48 2.5 36.5 58 -4.9 23.2
14:55 999 29.5 829 24.48 2.5 36.4 57 -5.1 22.8
15:00 999 29.5 829 24.48 2.9 37.2 56 -5 23
15:05 999 29.5 829 24.48 3.3 37.9 53 -5.3 22.4
15:10 999 29.5 829 24.48 4.1 39.3 50 -5.3 22.4
15:15 999 29.5 828 24.45 4.8 40.7 47 -5.6 22
15:20 999 29.5 828 24.45 4.6 40.3 48 -5.4 22.2
15:25 999 29.5 828 24.45 4.1 39.4 52 -5 23.1
15:30 999 29.5 828 24.45 2.6 36.8 56 -5.4 22.3
15:35 999 29.5 828 24.45 2.4 36.3 55 -5.6 21.9
15:40 999 29.5 828 24.45 2.4 36.3 55 -5.8 21.5
15:45 999 29.5 828 24.45 3.1 37.5 50 -6.3 20.7
15:50 999 29.5 828 24.45 2.8 37 52 -6.2 20.9
15:55 999 29.5 828 24.45 2 35.6 52 -6.9 19.6
16:00 999 29.5 828 24.45 2.4 36.3 50 -6.9 19.6
16:05 999 29.5 828 24.45 2.4 36.2 49 -7.4 18.7
16:10 999 29.5 828 24.45 1.9 35.5 50 -7.5 18.5
16:15 999 29.5 828 24.45 2.1 35.7 49 -7.5 18.5
16:20 999 29.5 828 24.45 2.9 37.3 47 -7.2 19
16:25 999 29.5 828 24.45 3.9 39.1 43 -7.5 18.5
16:30 999 29.5 828 24.45 4.5 40.1 41 -7.8 18
16:35 999 29.5 828 24.45 4.6 40.3 39 -8.2 17.3
16:40 999 29.5 828 24.45 4.6 40.2 42 -7.4 18.7
16:45 999 29.5 828 24.45 3.6 38.5 44 -7.6 18.4
16:50 999 29.5 828 24.45 3.2 37.8 45 -7.5 18.6
16:55 999 29.5 828 24.45 3.1 37.6 46 -7.5 18.5
17:00 999 29.5 828 24.45 3 37.4 45 -7.7 18.2
17:05 999 29.5 828 24.45 2.6 36.7 46 -7.8 18
17:10 999 29.5 828 24.45 1.9 35.4 49 -7.7 18.1
17:15 999 29.5 828 24.45 1.5 34.8 50 -7.8 18
17:20 999 29.5 828 24.45 1.6 34.9 52 -7.3 18.8
17:25 999 29.5 828 24.45 1.8 35.2 50 -7.6 18.3
17:30 999 29.5 828 24.45 2 35.5 48 -7.9 17.8
17:35 999 29.5 828 24.45 1.4 34.5 51 -7.7 18.1
17:40 999 29.5 828 24.45 1.3 34.3 56 -6.6 20
17:45 999 29.5 828 24.45 1 33.7 55 -7.1 19.1
17:50 999 29.5 828 24.45 1.5 34.6 53 -7.1 19.2
17:55 999 29.5 828 24.45 1.7 35 54 -6.6 20.2
18:00 999 29.5 828 24.45 1.5 34.6 53 -7 19.3
18:05 999 29.5 828 24.45 0.8 33.4 56 -7.1 19.3
18:10 999 29.5 828 24.45 0.4 32.7 59 -6.6 20
18:15 999 29.5 828 24.45 0.4 32.6 59 -6.8 19.8
18:20 999 29.5 828 24.45 0.2 32.4 58 -7.1 19.2
18:25 999 29.5 828 24.45 0.2 32.3 59 -6.8 19.7
18:30 999 29.5 828 24.45 -0.3 31.4 62 -6.8 19.7
18:35 999 29.5 828 24.45 -0.5 31.2 60 -7.3 18.9
18:40 999 29.5 828 24.45 -0.3 31.6 60 -7.1 19.2
18:45 999 29.5 828 24.45 -0.3 31.4 60 -7.2 19
18:50 999 29.5 828 24.45 -1 30.3 63 -7.1 19.2
18:55 999 29.5 828 24.45 -1.8 28.8 62 -8 17.6
19:00 999 29.5 828 24.45 -1.8 28.8 63 -8 17.7
19:05 999 29.5 828 24.45 -2.2 28 61 -8.8 16.2
19:10 999 29.5 828 24.45 -2 28.5 60 -8.8 16.1
19:15 999 29.5 828 24.45 -2.3 27.9 62 -8.6 16.4
19:20 999 29.5 828 24.45 -2.6 27.4 61 -9.1 15.6
19:25 999 29.5 828 24.45 -2.4 27.6 61 -9 15.8
19:30 999 29.5 828 24.45 -2.5 27.4 60 -9.2 15.5
19:35 999 29.5 828 24.45 -2.3 27.8 60 -9.2 15.5
19:40 999 29.5 828 24.45 -2.3 27.8 60 -9 15.8
19:45 999 29.5 828 24.45 -2.5 27.5 61 -9.1 15.7
19:50 999 29.5 828 24.45 -2.5 27.6 61 -9 15.8
19:55 999 29.5 828 24.45 -2.6 27.3 58 -9.7 14.5
20:00 999 29.5 828 24.45 -2.7 27.2 58 -9.9 14.1
20:05 999 29.5 828 24.45 -2.4 27.7 57 -9.7 14.5
20:10 999 29.5 828 24.45 -2.2 28.1 55 -9.9 14.1
20:15 999 29.5 828 24.45 -2 28.3 56 -9.8 14.4
20:20 999 29.5 828 24.45 -2.2 28.1 56 -9.9 14.2
20:25 999 29.5 828 24.45 -2.3 27.9 56 -9.9 14.2
20:30 999 29.5 828 24.45 -2.6 27.4 56 -10.1 13.8
20:35 999 29.5 828 24.45 -2.8 26.9 58 -9.9 14.2
20:40 999 29.5 828 24.45 -3 26.6 59 -9.9 14.1
20:45 999 29.5 828 24.45 -3 26.6 59 -9.9 14.1
20:50 999 29.5 828 24.45 -2.9 26.7 58 -10.1 13.9
20:55 999 29.5 828 24.45 -2.9 26.7 58 -10.1 13.8
21:00 998 29.47 828 24.45 -2.8 26.9 57 -10.3 13.4
21:05 998 29.47 828 24.45 -2.8 26.9 56 -10.3 13.4
21:10 998 29.47 828 24.45 -2.8 27 56 -10.3 13.5
21:15 998 29.47 827 24.42 -2.9 26.8 56 -10.4 13.3
21:20 998 29.47 827 24.42 -2.8 26.9 56 -10.4 13.2
21:25 998 29.47 827 24.42 -3 26.7 56 -10.6 12.9
21:30 998 29.47 827 24.42 -3 26.7 56 -10.6 12.9
21:35 998 29.47 827 24.42 -3 26.6 56 -10.7 12.7
21:40 998 29.47 827 24.42 -3.2 26.2 56 -10.9 12.4
21:45 998 29.47 827 24.42 -3.2 26.2 56 -10.9 12.4
21:50 998 29.47 827 24.42 -3.1 26.4 54 -11.1 12
21:55 998 29.47 827 24.42 -2.9 26.7 54 -11 12.2
22:00 998 29.47 827 24.42 -3.1 26.5 55 -11 12.2
22:05 998 29.47 827 24.42 -3.1 26.4 55 -11 12.3
22:10 998 29.47 827 24.42 -3.1 26.3 55 -11 12.2
22:15 998 29.47 827 24.42 -3.1 26.4 54 -11.2 11.8
22:20 998 29.47 827 24.42 -3 26.7 53 -11.3 11.7
22:25 998 29.47 827 24.42 -2.9 26.8 53 -11.3 11.7
22:30 998 29.47 827 24.42 -2.9 26.7 53 -11.1 12
22:35 998 29.47 827 24.42 -2.9 26.8 51 -11.6 11.1
22:40 998 29.47 827 24.42 -2.7 27.2 52 -11.1 11.9
22:45 998 29.47 827 24.42 -3 26.7 53 -11.3 11.6
22:50 998 29.47 827 24.42 -3.1 26.5 53 -11.4 11.5
22:55 998 29.47 827 24.42 -3 26.5 53 -11.4 11.5
23:00 998 29.47 827 24.42 -3.1 26.4 53 -11.4 11.5
23:05 998 29.47 827 24.42 -3.4 25.9 54 -11.4 11.4
23:10 998 29.47 827 24.42 -3.6 25.6 54 -11.6 11.1
23:15 998 29.47 827 24.42 -3.3 26 54 -11.4 11.4
23:20 998 29.47 827 24.42 -3.5 25.6 54 -11.5 11.4
23:25 998 29.47 827 24.42 -3.7 25.3 55 -11.5 11.2
23:30 998 29.47 827 24.42 -3.8 25.2 55 -11.5 11.3
23:35 998 29.47 827 24.42 -3.9 25 56 -11.5 11.3
23:40 998 29.47 827 24.42 -4 24.8 57 -11.4 11.6
23:45 998 29.47 827 24.42 -4.2 24.5 57 -11.3 11.6
23:50 998 29.47 827 24.42 -4.3 24.3 58 -11.4 11.4
23:55 998 29.47 827 24.42 -4.2 24.4 56 -11.7 11
24:00 998 29.47 827 24.42 -4 24.8 56 -11.6 11.1